Location: Seattle
(47.6064°N, 122.3308°W)
Time: 00:44:32
(UTC-08:00)

Tiros 1 - Pass Details

Date: 05 December 2020
Orbit: 630 x 663 km, 48.4° (Epoch: 28 January)

Event Time Altitude Azimuth Distance (km) Brightness Sun altitude
Rises 19:35:26 0° 281° (WNW) 2,989 11.6 -32.3°
Reaches altitude 10° 19:38:39 10° 260° (W) 2,068 10.5 -32.8°
Maximum altitude 19:41:24 15° 224° (SW) 1,726 9.7 -33.3°
Enters shadow 19:41:52 15° 217° (SW) 1,736 9.6 -33.4°
Drops below altitude 10° 19:44:08 10° 188° (S) 2,050 - -33.7°
Sets 19:47:18 0° 166° (SSE) 2,948 - -34.3°
